[[{"header":{"parameterUnit":"m.s-1","parameterCategory":1,"la1":30.2991,"la2":30.254,"lo1":-89.0895,"lo2":-89.0444,"dy":0.0017,"dx":0.0017,"nx":28,"ny":28,"refTime":"2023-09-26T09:00:00:Z","depth":0,"parameterNumber":2,"parameterNumberName":"U-component_of_WINDS"},"data":[0,0,0,0,0,0,0,0,0,0,0,0,0,0,0,0,0,0,0,0,0,0,0,0,0,0,0,0,0,0,0,0,0,0,0,0,0,0,0,0,0,0,0,0,0,0,0,0,0,0,0,0,0,0,0,0,0,0,-1.1275,-1.1275,0,-1.1345,-1.1346,-1.1346,-1.1312,-1.131,-1.1308,-1.1307,-1.1382,-1.1386,-1.1389,0,0,0,0,0,0,0,0,0,0,0,0,0,-1.1114,-1.1117,-1.1274,-1.1275,-1.1276,-1.1345,-1.1346,-1.1347,-1.1312,-1.131,-1.1308,-1.1306,-1.1381,-1.1385,-1.139,0,0,0,0,0,0,0,0,0,0,0,0,0,-1.1184,-1.1118,-1.1274,-1.1267,-1.1267,-1.1345,-1.1346,-1.1347,-1.1313,-1.131,-1.1307,-1.1305,-1.138,-1.1385,-1.139,-1.148,0,0,-1.1407,-1.141,0,0,0,0,0,0,0,0,-1.118,-1.119,-1.1267,-1.1268,-1.1268,-1.1317,-1.1317,-1.1392,-1.1313,-1.1296,-1.1307,-1.1303,-1.1363,-1.137,-1.1389,-1.1483,-1.1487,-1.1408,-1.1411,-1.1414,-1.1415,0,0,0,0,0,0,0,-1.1176,-1.1187,-1.1302,-1.1269,-1.1269,-1.1262,-1.1269,-1.1331,-1.1344,-1.1297,-1.1295,-1.1303,-1.1363,-1.1384,-1.1391,-1.1488,-1.1408,-1.1413,-1.1416,-1.1418,-1.1661,-1.1664,0,0,0,0,0,0,-1.117,-1.1183,-1.13,-1.1305,-1.1216,-1.1267,-1.1275,-1.1304,-1.1343,-1.1346,-1.1306,-1.1301,-1.1376,-1.1384,-1.1393,-1.1502,-1.1414,-1.1419,-1.1422,-1.1658,-1.1662,-1.1665,0,0,0,0,0,0,-1.1167,-1.1181,-1.1297,-1.1243,-1.1257,-1.1273,-1.1306,-1.1307,-1.1328,-1.1349,-1.1352,-1.1325,-1.1374,-1.1385,-1.1459,-1.1504,-1.1421,-1.1427,-1.1654,-1.1659,-1.1663,-1.1719,0,0,0,0,0,0,-1.1163,-1.118,-1.1213,-1.1244,-1.126,-1.1361,-1.1309,-1.131,-1.1337,-1.1332,-1.1368,-1.1371,-1.1372,-1.1451,-1.1464,-1.151,-1.1431,-1.165,-1.1656,-1.1662,-1.1713,-1.1725,-1.1735,0,0,0,0,0,-1.1157,-1.1227,-1.1215,-1.123,-1.1302,-1.1363,-1.1373,-1.1372,-1.1341,-1.1375,-1.1389,-1.137,-1.1496,-1.1458,-1.1473,-1.1522,-1.1647,-1.1655,-1.1661,-1.1709,-1.1723,-1.1735,0,0,0,0,0,0,-1.1202,-1.1231,-1.1218,-1.13,-1.1329,-1.1357,-1.1401,-1.1387,-1.1427,-1.1421,-1.1419,-1.1427,-1.1504,-1.152,-1.1477,-1.1611,-1.1567,-1.1578,-1.1598,-1.1612,-1.1623,-1.1618,-1.1435,0,0,0,0,0,-1.1221,-1.1267,-1.129,-1.136,-1.1375,-1.1386,-1.1412,-1.1409,-1.144,-1.1453,-1.1472,-1.1504,-1.1551,-1.1582,-1.1626,-1.1715,-1.1723,-1.1756,-1.1767,-1.1775,-1.1785,-1.1835,-1.1851,-1.1688,-1.1688,-1.1688,0,0,-1.1262,-1.1283,-1.1312,-1.137,-1.1392,-1.1442,-1.1396,-1.145,-1.1488,-1.1461,-1.1532,-1.1547,-1.1583,-1.1665,-1.1702,-1.1681,-1.1832,-1.1784,-1.1791,-1.1796,-1.1844,-1.1859,-1.1873,-1.1692,-1.1692,-1.1691,0,0,-1.1361,-1.1381,-1.1442,-1.1465,-1.15,-1.1506,-1.1521,-1.1551,-1.156,-1.1631,-1.1613,-1.1657,-1.1738,-1.1764,-1.1789,-1.1899,-1.1884,-1.1913,-1.1971,-1.202,-1.2033,-1.2044,-1.2086,-1.21,-1.1922,-1.1922,-1.1922,0,-1.1408,-1.148,-1.1475,-1.1531,-1.1558,-1.1535,-1.1598,-1.1621,-1.1669,-1.1688,-1.1663,-1.1764,-1.1787,-1.1876,-1.1903,-1.1922,-1.194,-1.191,-1.2031,-1.2042,-1.2053,-1.2093,-1.2108,-1.1926,-1.1925,-1.1925,-1.1925,0,-1.1537,-1.1587,-1.1633,-1.1679,-1.171,-1.1769,-1.1775,-1.1807,-1.1801,-1.1811,-1.1884,-1.191,-1.196,-1.198,-1.1975,-1.2069,-1.2055,-1.203,-1.1987,-1.2072,-1.211,-1.2124,-1.1931,-1.193,-1.1929,-1.1928,0,0,-1.1667,-1.171,-1.1727,-1.1748,-1.1784,-1.1824,-1.1883,-1.193,-1.196,-1.1993,-1.2044,-1.2112,-1.209,-1.2118,-1.2115,-1.2158,-1.2246,-1.2129,-1.2129,-1.2151,-1.2354,-1.2374,-1.2391,-1.2235,-1.2238,-1.224,-1.2352,0,-1.1771,-1.1873,-1.187,-1.1965,-1.2013,-1.1992,-1.2044,-1.2073,-1.2083,-1.2126,-1.2138,-1.2188,-1.2154,-1.217,-1.2212,-1.2227,-1.2287,-1.2218,-1.2285,-1.2287,-1.2278,-1.241,-1.2431,-1.2535,-1.2366,-1.2368,-1.237,0,-1.1906,-1.1943,-1.2043,-1.2073,-1.2093,-1.2139,-1.2184,-1.2225,-1.2257,-1.2262,-1.2293,-1.2284,-1.2345,-1.2298,-1.2384,-1.2337,-1.2364,-1.2376,-1.238,-1.2388,-1.2335,-1.2424,-1.2567,-1.2584,-1.2393,-1.2391,-1.2389,0,-1.1994,-1.2069,-1.2139,-1.2157,-1.2194,-1.2227,-1.2244,-1.2274,-1.2303,-1.2342,-1.2362,-1.2408,-1.2434,-1.247,-1.2474,-1.2439,-1.2561,-1.2514,-1.2569,-1.2569,-1.2597,-1.2596,-1.275,-1.2611,-1.2611,-1.2611,-1.261,0,-1.2111,-1.2173,-1.2179,-1.2222,-1.2292,-1.2289,-1.2359,-1.2373,-1.24,-1.2447,-1.2431,-1.2476,-1.2478,-1.2524,-1.2527,-1.2599,-1.261,-1.2617,-1.2618,-1.262,-1.262,-1.2639,-1.2633,-1.2615,-1.2614,-1.2613,-1.2612,0,-1.2222,-1.2228,-1.2303,-1.2331,-1.234,-1.239,-1.2415,-1.2458,-1.2466,-1.2526,-1.254,-1.2554,-1.2608,-1.2615,-1.2678,-1.268,-1.2767,-1.2759,-1.2756,-1.2756,-1.2811,-1.2806,-1.2984,-1.3008,-1.2852,-1.2854,-1.2855,0,-1.2297,-1.2345,-1.2378,-1.2408,-1.2427,-1.2474,-1.2504,-1.2503,-1.2535,-1.2577,-1.2614,-1.2666,-1.2708,-1.2794,-1.2812,-1.286,-1.2854,-1.2913,-1.2862,-1.2863,-1.2858,-1.2856,-1.2862,-1.2924,-1.2926,-1.2927,-1.2928,0,-1.2431,-1.2432,-1.2475,-1.2519,-1.2555,-1.259,-1.2623,-1.2649,-1.2652,-1.2689,-1.2743,-1.2775,-1.2839,-1.2892,-1.294,-1.2959,-1.2946,-1.2944,-1.296,-1.2964,-1.2961,-1.2965,-1.2786,-1.2941,-1.2939,-1.2939,-1.2938,-1.2937,-1.2528,-1.257,-1.26,-1.2649,-1.2674,-1.2705,-1.2746,-1.276,-1.2805,-1.2856,-1.2853,-1.2913,-1.2946,-1.3009,-1.3032,-1.308,-1.3061,-1.3083,-1.3089,-1.3095,-1.3101,-1.2951,-1.3088,-1.3088,-1.3088,-1.3087,-1.3087,0,-1.2663,-1.2682,-1.2726,-1.2773,-1.2812,-1.2793,-1.2829,-1.2863,-1.2916,-1.2947,-1.2988,-1.3052,-1.3102,-1.3123,-1.3174,-1.3209,-1.3204,-1.3222,-1.3221,-1.3226,-1.3114,-1.3097,-1.3225,-1.3225,-1.3225,-1.3225,-1.3225,-1.3225,-1.2738,-1.2809,-1.2813,-1.2896,-1.2914,-1.2972,-1.2995,-1.3024,-1.3049,-1.312,-1.3162,-1.3175,-1.3203,-1.3255,-1.3301,-1.3306,-1.3327,-1.3348,-1.3351,-1.3247,-1.3233,-1.322,-1.3204,-1.3352,-1.3352,-1.3458,-1.3459,-1.346]},{"header":{"parameterUnit":"m.s-1","parameterCategory":1,"la1":30.2991,"la2":30.254,"lo1":-89.0895,"lo2":-89.0444,"dy":0.0017,"dx":0.0017,"nx":28,"ny":28,"refTime":"2023-09-26T09:00:00:Z","depth":0,"parameterNumber":3,"parameterNumberName":"V-component_of_WINDS"},"data":[0,0,0,0,0,0,0,0,0,0,0,0,0,0,0,0,0,0,0,0,0,0,0,0,0,0,0,0,0,0,0,0,0,0,0,0,0,0,0,0,0,0,0,0,0,0,0,0,0,0,0,0,0,0,0,0,0,0,-2.3965,-2.3966,0,-2.4007,-2.4007,-2.4008,-2.3984,-2.3983,-2.3982,-2.3981,-2.4022,-2.4024,-2.4026,0,0,0,0,0,0,0,0,0,0,0,0,0,-2.3864,-2.3866,-2.3965,-2.3966,-2.3966,-2.4007,-2.4007,-2.4008,-2.3984,-2.3983,-2.3982,-2.398,-2.4021,-2.4023,-2.4026,0,0,0,0,0,0,0,0,0,0,0,0,0,-2.3907,-2.3867,-2.3965,-2.3959,-2.3959,-2.4007,-2.4007,-2.4008,-2.3985,-2.3983,-2.3981,-2.398,-2.402,-2.4023,-2.4026,-2.4081,0,0,-2.4036,-2.4038,0,0,0,0,0,0,0,0,-2.3905,-2.3911,-2.396,-2.396,-2.396,-2.3989,-2.3987,-2.4032,-2.3985,-2.3975,-2.3981,-2.3979,-2.4012,-2.4016,-2.4027,-2.4083,-2.4085,-2.4036,-2.4038,-2.404,-2.4041,0,0,0,0,0,0,0,-2.3902,-2.3909,-2.3982,-2.396,-2.3961,-2.3954,-2.3959,-2.3995,-2.4003,-2.3976,-2.3974,-2.3979,-2.4011,-2.4024,-2.4028,-2.4085,-2.4036,-2.4039,-2.4041,-2.4043,-2.4188,-2.419,0,0,0,0,0,0,-2.3899,-2.3907,-2.398,-2.3983,-2.3928,-2.3958,-2.3962,-2.3981,-2.4002,-2.4004,-2.3981,-2.3978,-2.4019,-2.4024,-2.4029,-2.4095,-2.404,-2.4043,-2.4045,-2.4186,-2.4188,-2.4191,0,0,0,0,0,0,-2.3897,-2.3906,-2.3979,-2.3944,-2.3953,-2.3961,-2.3982,-2.3983,-2.3995,-2.4006,-2.4007,-2.3993,-2.4018,-2.4025,-2.4068,-2.4096,-2.4044,-2.4047,-2.4184,-2.4187,-2.419,-2.4227,0,0,0,0,0,0,-2.3894,-2.3905,-2.3927,-2.3945,-2.3955,-2.4018,-2.3984,-2.3985,-2.4001,-2.3998,-2.4017,-2.4019,-2.4017,-2.4064,-2.4072,-2.41,-2.405,-2.4181,-2.4185,-2.4189,-2.4223,-2.4231,-2.4237,0,0,0,0,0,-2.3891,-2.3935,-2.3928,-2.3937,-2.3982,-2.4019,-2.4025,-2.4023,-2.4004,-2.4025,-2.4032,-2.4018,-2.4092,-2.4068,-2.4077,-2.4106,-2.418,-2.4184,-2.4188,-2.422,-2.4229,-2.4237,0,0,0,0,0,0,-2.3919,-2.3937,-2.393,-2.3981,-2.3999,-2.4015,-2.4042,-2.4033,-2.4056,-2.4052,-2.4048,-2.4053,-2.4098,-2.4107,-2.408,-2.4161,-2.4133,-2.4139,-2.4154,-2.4162,-2.4169,-2.4166,-2.4052,0,0,0,0,0,-2.3931,-2.3961,-2.3975,-2.4019,-2.4028,-2.4034,-2.405,-2.4047,-2.4065,-2.4072,-2.4082,-2.41,-2.4127,-2.4145,-2.4171,-2.4224,-2.4228,-2.4248,-2.4255,-2.4261,-2.4267,-2.4296,-2.4305,-2.4205,-2.4205,-2.4205,0,0,-2.3957,-2.397,-2.3989,-2.4025,-2.4038,-2.4069,-2.404,-2.4073,-2.4096,-2.4077,-2.412,-2.4128,-2.4147,-2.4196,-2.4218,-2.4204,-2.4295,-2.4267,-2.4271,-2.4273,-2.4301,-2.4311,-2.4319,-2.4208,-2.4207,-2.4207,0,0,-2.4019,-2.4032,-2.407,-2.4085,-2.4106,-2.4109,-2.4118,-2.4137,-2.4141,-2.4184,-2.4171,-2.4197,-2.4244,-2.4258,-2.4272,-2.434,-2.4328,-2.4348,-2.4385,-2.4413,-2.4421,-2.4428,-2.4453,-2.4461,-2.4354,-2.4354,-2.4354,0,-2.4047,-2.4093,-2.4091,-2.4126,-2.4142,-2.4127,-2.4166,-2.418,-2.4208,-2.4219,-2.4204,-2.4262,-2.4274,-2.4327,-2.4344,-2.4355,-2.4365,-2.4346,-2.442,-2.4427,-2.4434,-2.4457,-2.4466,-2.4356,-2.4356,-2.4356,-2.4355,0,-2.4128,-2.416,-2.4188,-2.4217,-2.4236,-2.4272,-2.4275,-2.4295,-2.4291,-2.4296,-2.4339,-2.4353,-2.4381,-2.4393,-2.4389,-2.4445,-2.4436,-2.4421,-2.4392,-2.4446,-2.4468,-2.4476,-2.4359,-2.4359,-2.4358,-2.4357,0,0,-2.4208,-2.4236,-2.4246,-2.4259,-2.4282,-2.4306,-2.4342,-2.437,-2.4388,-2.4407,-2.4437,-2.4478,-2.4463,-2.4479,-2.4476,-2.4501,-2.4554,-2.4482,-2.4482,-2.4495,-2.4618,-2.463,-2.464,-2.4547,-2.4548,-2.455,-2.4616,0,-2.4272,-2.4336,-2.4335,-2.4393,-2.4423,-2.441,-2.4441,-2.4458,-2.4463,-2.4489,-2.4495,-2.4523,-2.4502,-2.4512,-2.4536,-2.4543,-2.4579,-2.4538,-2.4574,-2.4576,-2.457,-2.4652,-2.4664,-2.4727,-2.4625,-2.4626,-2.4627,0,-2.4355,-2.4379,-2.4441,-2.4459,-2.4472,-2.45,-2.4526,-2.4551,-2.457,-2.4572,-2.459,-2.4583,-2.4619,-2.459,-2.4639,-2.4611,-2.4626,-2.4632,-2.4634,-2.4638,-2.4605,-2.4658,-2.4746,-2.4756,-2.4641,-2.464,-2.4639,0,-2.4408,-2.4455,-2.4499,-2.451,-2.4533,-2.4553,-2.4563,-2.4581,-2.4598,-2.4621,-2.4632,-2.4658,-2.4673,-2.4693,-2.4694,-2.4672,-2.4744,-2.4714,-2.4747,-2.4747,-2.4762,-2.4762,-2.4855,-2.4771,-2.4771,-2.4771,-2.4771,0,-2.448,-2.4518,-2.4523,-2.455,-2.4592,-2.4591,-2.4633,-2.4641,-2.4657,-2.4684,-2.4674,-2.47,-2.4699,-2.4726,-2.4726,-2.4767,-2.4774,-2.4776,-2.4776,-2.4778,-2.4777,-2.4787,-2.4783,-2.4774,-2.4773,-2.4773,-2.4772,0,-2.4547,-2.4551,-2.4598,-2.4616,-2.4621,-2.4652,-2.4667,-2.4692,-2.4697,-2.4732,-2.474,-2.4748,-2.4778,-2.4781,-2.4816,-2.4816,-2.4866,-2.4861,-2.486,-2.486,-2.4892,-2.4889,-2.4995,-2.5009,-2.4916,-2.4917,-2.4918,0,-2.4592,-2.4621,-2.4643,-2.4661,-2.4673,-2.4702,-2.472,-2.472,-2.4739,-2.4763,-2.4785,-2.4815,-2.4839,-2.4888,-2.4897,-2.4923,-2.4919,-2.4954,-2.4923,-2.4924,-2.492,-2.4919,-2.4922,-2.4961,-2.4962,-2.4962,-2.4963,0,-2.4672,-2.4674,-2.47,-2.4728,-2.475,-2.4771,-2.4792,-2.4807,-2.4809,-2.4831,-2.4862,-2.4881,-2.4917,-2.4947,-2.4974,-2.4984,-2.4974,-2.4973,-2.4982,-2.4984,-2.4983,-2.4984,-2.4877,-2.4971,-2.497,-2.4969,-2.4969,-2.4969,-2.473,-2.4756,-2.4775,-2.4805,-2.4821,-2.484,-2.4865,-2.4873,-2.49,-2.493,-2.4928,-2.4963,-2.4981,-2.5016,-2.5028,-2.5055,-2.5043,-2.5056,-2.5059,-2.5063,-2.5066,-2.4978,-2.506,-2.506,-2.506,-2.5059,-2.5059,0,-2.481,-2.4823,-2.485,-2.4879,-2.4903,-2.4892,-2.4914,-2.4935,-2.4966,-2.4984,-2.5008,-2.5045,-2.5074,-2.5084,-2.5113,-2.5132,-2.5129,-2.514,-2.5138,-2.5141,-2.5075,-2.5065,-2.5142,-2.5142,-2.5142,-2.5142,-2.5142,-2.5142,-2.4855,-2.4898,-2.4902,-2.4952,-2.4964,-2.4999,-2.5012,-2.503,-2.5045,-2.5086,-2.5111,-2.5118,-2.5133,-2.5162,-2.5188,-2.519,-2.5201,-2.5215,-2.5215,-2.5154,-2.5145,-2.5137,-2.5128,-2.5217,-2.5217,-2.5279,-2.5279,-2.528]}]]